NOAA-14
1 23455U 94089A   04316.34653416  .00000103  00000-0  79520-4 0  3439
2 23455  99.1228 354.7831 0008617 251.0009 109.0214 14.13506371508722
SICH-1
1 23657U 95046A   04316.15336407  .00001902  00000-0  24141-3 0  2721
2 23657  82.5287 241.4570 0025563 116.7095 243.6746 14.80984807495683
NOAA-15
1 25338U 98030A   04316.25438965  .00000131  00000-0  74822-4 0  7931
2 25338  98.5198 325.2049 0009558 276.2834  83.7274 14.24464846337723
RESURS
1 25394U 98043A   04316.89123043  .00000151  00000-0  84478-4 0  9454
2 25394  98.5675  25.9955 0002403  77.6759 282.4687 14.24033708329520
FENGYUN1
1 25730U 99025A   04316.62999195 -.00000020  00000-0  12036-4 0  2774
2 25730  98.6051 321.1641 0014512   4.4048 355.7249 14.11783244283811
OKEAN-0
1 25860U 99039A   04316.21012660  .00001141  00000-0  18434-3 0  2761
2 25860  97.7828 345.4323 0001570 139.3699 220.7716 14.73149899285916
NOAA-16
1 26536U 00055A   04316.56707934 -.00000039  00000-0  34680-5 0   953
2 26536  98.9820 268.1246 0010078 325.1104  34.9725 14.12172484213348
NOAA-17
1 27453U 02032A   04316.55378173  .00000365  00000-0  17929-3 0  1178
2 27453  98.6868  27.1140 0011146 330.6264  29.4289 14.23593632123873
HUBBLE
1 20580U 90037B   04316.89393997  .00003565  00000-0  27101-3 0  2047
2 20580  28.4694 244.3096 0004317 103.3392 256.7557 14.99434921597592
UARS
1 21701U 91063B   04316.14910270  .00001482  00000-0  12584-3 0  3079
2 21701  56.9815 353.8159 0003940  88.0338 272.1145 15.03678223720690
PO-34
1 25520U 98064B   04315.43539623  .00003440  00000-0  16507-3 0   500
2 25520  28.4601 334.3836 0005433   9.4460 350.6360 15.15881349333350
ISS
1 25544U 98067A   04316.98447509 -.00069462  00000-0 -54551-3 0  1196
2 25544  51.6339 291.5611 0008804 345.2603 123.8177 15.70793314341532
OO-38
1 26063U 00004C   04316.48448475  .00000297  00000-0  12257-3 0  2079
2 26063 100.2245 130.4560 0036775 308.4668  51.3206 14.35681761251057
NO-45
1 26932U 01043D   04316.41124219  .00000115  00000-0  77442-4 0  8891
2 26932  67.0593  68.3057 0006922 286.9186  73.1165 14.29452897162678
